Weather History for KBID - December, 2011

Change the Weather History Date:

Thursday, December 15, 2011

  Actual Average (WUND) Record (WUND)
Temperature  
Mean Temperature 48 °F -  
Max Temperature 55 °F - - (-1)
Min Temperature 42 °F - - (-1)
Degree Days  
Heating Degree Days 16    
Moisture  
Dew Point 43 °F    
Average Humidity 73    
Maximum Humidity 82    
Minimum Humidity 66    
Precipitation  
Precipitation 0.00 in - - ()
Sea Level Pressure  
Sea Level Pressure 30.04 in    
Wind  
Wind Speed 16 mph (SSW)    
Max Wind Speed 28 mph    
Max Gust Speed 37 mph    
Visibility 10 miles    
Events      
Averages and records for this station are not official NWS values.
T = Trace of Precipitation, MM = Missing Value Source: NWS Daily Summary

Daily Weather History Graph

Daily Weather History Graph

Search for Another Location

Airport or City:

Trip Planner

Search our weather history database for the weather conditions in past years. The results will help you decide how hot, cold, wet, or windy it might be!

Date:

Astronomy

Dec. 15, 2011 Rise Set
Actual Time 7:04 AM EST 4:18 PM EST
Civil Twilight 6:33 AM EST 4:49 PM EST
Nautical Twilight 5:58 AM EST 5:24 PM EST
Astronomical Twilight 5:24 AM EST 5:57 PM EST
Moon 9:43 PM EST (12/15) 10:16 AM EST (12/15)
Length of Visible Light 10h 16m
Length of Day
9h 13m
Waning Gibbous, 75% of the Moon is Illuminated
Dec 15
Waning Gibbous
Dec 17
Last Quarter
Dec 24
New
Jan 1
First Quarter
Jan 9
Full

Hourly Weather History & Observations

Time (EST) Temp. Windchill Dew Point Humidity Pressure Visibility Wind Dir Wind Speed Gust Speed Precip Events Conditions
12:35 AM 42.8 °F 37.5 °F 32.0 °F 66% 30.34 in 10.0 mi SE 9.2 mph - N/A   Mostly Cloudy
12:55 AM 42.8 °F 37.5 °F 32.0 °F 66% 30.33 in 10.0 mi SSE 9.2 mph - N/A   Overcast
1:15 AM 42.8 °F 37.0 °F 32.0 °F 66% 30.33 in 10.0 mi SE 10.4 mph - N/A   Overcast
2:35 AM 44.6 °F 39.2 °F 33.8 °F 66% 30.32 in 10.0 mi South 10.4 mph - N/A   Overcast
2:55 AM 44.6 °F 38.8 °F 33.8 °F 66% 30.30 in 10.0 mi South 11.5 mph - N/A   Overcast
3:15 AM 44.6 °F 38.1 °F 33.8 °F 66% 30.28 in 10.0 mi South 13.8 mph - N/A   Overcast
3:55 AM 44.6 °F 38.4 °F 33.8 °F 66% 30.26 in 10.0 mi South 12.7 mph - N/A   Overcast
4:15 AM 44.6 °F 38.4 °F 35.6 °F 71% 30.25 in 10.0 mi South 12.7 mph - N/A   Overcast
4:35 AM 44.6 °F 38.8 °F 35.6 °F 71% 30.26 in 10.0 mi South 11.5 mph - N/A   Overcast
5:15 AM 46.4 °F 40.7 °F 35.6 °F 66% 30.25 in 10.0 mi South 12.7 mph 18.4 mph N/A   Overcast
5:35 AM 46.4 °F 40.4 °F 37.4 °F 71% 30.26 in 10.0 mi South 13.8 mph - N/A   Overcast
5:55 AM 46.4 °F 40.4 °F 37.4 °F 71% 30.26 in 10.0 mi South 13.8 mph - N/A   Overcast
6:15 AM 46.4 °F 40.1 °F 37.4 °F 71% 30.25 in 10.0 mi South 15.0 mph 20.7 mph N/A   Overcast
6:35 AM 48.2 °F - 37.4 °F 66% 30.24 in 10.0 mi South 13.8 mph - N/A   Overcast
6:55 AM 48.2 °F - 39.2 °F 71% 30.24 in 10.0 mi South 12.7 mph 19.6 mph N/A   Overcast
7:35 AM 48.2 °F - 42.8 °F 82% 30.22 in 10.0 mi South 16.1 mph 19.6 mph N/A   Overcast
7:55 AM 50.0 °F - 42.8 °F 76% 30.21 in 10.0 mi SSW 15.0 mph 19.6 mph N/A   Mostly Cloudy
8:15 AM 51.8 °F - 42.8 °F 71% 30.21 in 10.0 mi SSW 12.7 mph - N/A   Overcast
8:35 AM 51.8 °F - 41.0 °F 67% 30.20 in 10.0 mi SSW 13.8 mph 19.6 mph N/A   Overcast
8:55 AM 51.8 °F - 42.8 °F 71% 30.19 in 10.0 mi SSW 13.8 mph 21.9 mph N/A   Overcast
9:15 AM 51.8 °F - 42.8 °F 71% 30.19 in 10.0 mi SSW 15.0 mph 21.9 mph N/A   Overcast
9:35 AM 51.8 °F - 42.8 °F 71% 30.18 in 10.0 mi SSW 17.3 mph 24.2 mph N/A   Overcast
10:35 AM 53.6 °F - 44.6 °F 72% 30.14 in 10.0 mi SSW 16.1 mph 21.9 mph N/A   Overcast
10:55 AM 53.6 °F - 44.6 °F 72% 30.12 in 10.0 mi SSW 18.4 mph 21.9 mph N/A   Overcast
11:15 AM 53.6 °F - 44.6 °F 72% 30.10 in 10.0 mi SSW 20.7 mph 25.3 mph N/A   Overcast
11:35 AM 53.6 °F - 44.6 °F 72% 30.08 in 10.0 mi SSW 17.3 mph 27.6 mph N/A   Overcast
12:15 PM 53.6 °F - 46.4 °F 77% 30.03 in 10.0 mi SSW 20.7 mph 26.5 mph N/A   Mostly Cloudy
12:35 PM 53.6 °F - 46.4 °F 77% 30.01 in 10.0 mi SSW 21.9 mph 29.9 mph N/A   Mostly Cloudy
12:55 PM 53.6 °F - 44.6 °F 72% 30.00 in 10.0 mi SSW 20.7 mph 29.9 mph N/A   Overcast
1:35 PM 55.4 °F - 44.6 °F 67% 29.98 in 10.0 mi SSW 21.9 mph 32.2 mph N/A   Overcast
1:55 PM 55.4 °F - 44.6 °F 67% 29.97 in 10.0 mi SSW 24.2 mph 29.9 mph N/A   Overcast
2:15 PM 55.4 °F - 44.6 °F 67% 29.96 in 10.0 mi SSW 23.0 mph 29.9 mph N/A   Overcast
2:35 PM 55.4 °F - 46.4 °F 72% 29.95 in 10.0 mi SSW 23.0 mph 33.4 mph N/A   Mostly Cloudy
2:55 PM 55.4 °F - 44.6 °F 67% 29.95 in 10.0 mi SSW 21.9 mph 31.1 mph N/A   Mostly Cloudy
3:15 PM 55.4 °F - 44.6 °F 67% 29.94 in 10.0 mi SW 24.2 mph 28.8 mph N/A   Scattered Clouds
3:35 PM 55.4 °F - 44.6 °F 67% 29.93 in 10.0 mi SW 20.7 mph 32.2 mph N/A   Partly Cloudy
3:55 PM 55.4 °F - 46.4 °F 72% 29.91 in 10.0 mi SSW 23.0 mph 31.1 mph N/A   Mostly Cloudy
4:15 PM 53.6 °F - 46.4 °F 77% 29.90 in 10.0 mi SSW 21.9 mph 32.2 mph N/A   Partly Cloudy
4:35 PM 53.6 °F - 46.4 °F 77% 29.89 in 10.0 mi SSW 21.9 mph 28.8 mph N/A   Clear
4:55 PM 53.6 °F - 46.4 °F 77% 29.88 in 10.0 mi SSW 23.0 mph 27.6 mph N/A   Clear
5:15 PM 55.4 °F - 46.4 °F 72% 29.88 in 10.0 mi SW 24.2 mph 32.2 mph N/A   Clear
5:35 PM 55.4 °F - 46.4 °F 72% 29.88 in 10.0 mi SW 23.0 mph 33.4 mph N/A   Clear
5:55 PM 55.4 °F - 46.4 °F 72% 29.86 in 10.0 mi SW 24.2 mph 35.7 mph N/A   Scattered Clouds
6:15 PM 55.4 °F - 46.4 °F 72% 29.86 in 10.0 mi SW 21.9 mph 34.5 mph N/A   Partly Cloudy
6:35 PM 55.4 °F - 46.4 °F 72% 29.84 in 10.0 mi SW 21.9 mph 32.2 mph N/A   Partly Cloudy
6:55 PM 55.4 °F - 48.2 °F 77% 29.84 in 10.0 mi SW 27.6 mph 36.8 mph N/A   Mostly Cloudy
7:15 PM 55.4 °F - 48.2 °F 77% 29.85 in 10.0 mi SW 27.6 mph 34.5 mph N/A   Overcast
7:35 PM 55.4 °F - 48.2 °F 77% 29.85 in 9.0 mi SW 25.3 mph 36.8 mph N/A   Overcast
7:55 PM 53.6 °F - 48.2 °F 82% 29.85 in 8.0 mi SW 21.9 mph 29.9 mph N/A   Overcast
8:15 PM 53.6 °F - 48.2 °F 82% 29.84 in 7.0 mi SW 21.9 mph 31.1 mph N/A   Overcast
8:35 PM 53.6 °F - 48.2 °F 82% 29.84 in 9.0 mi SW 23.0 mph 31.1 mph N/A   Overcast
8:55 PM 53.6 °F - 48.2 °F 82% 29.83 in 10.0 mi SW 21.9 mph 31.1 mph N/A   Overcast
9:15 PM 53.6 °F - 48.2 °F 82% 29.82 in 8.0 mi SW 20.7 mph 32.2 mph N/A   Overcast
9:55 PM 55.4 °F - 48.2 °F 77% 29.82 in 10.0 mi WSW 17.3 mph 27.6 mph N/A   Overcast
10:35 PM 55.4 °F - 48.2 °F 77% 29.80 in 10.0 mi WSW 18.4 mph 25.3 mph N/A   Overcast
10:55 PM 55.4 °F - 48.2 °F 77% 29.80 in 10.0 mi WSW 17.3 mph 21.9 mph N/A   Overcast
11:15 PM 55.4 °F - 48.2 °F 77% 29.81 in 10.0 mi WSW 17.3 mph 23.0 mph N/A   Overcast
11:35 PM 55.4 °F - 48.2 °F 77% 29.79 in 10.0 mi WSW 15.0 mph 24.2 mph N/A   Overcast
11:55 PM 55.4 °F - 48.2 °F 77% 29.78 in 10.0 mi WSW 17.3 mph 24.2 mph N/A   Mostly Cloudy